KP4DJT Weather Reports


time (UTC)temp
C
wind
direction
speed
KPH
gust
KPH
rain 1hr
cm
rain 24hr
cm
rain mn
cm
humidity
%
barometer
mb
20260510000219 27 151 11.3 14.5 0.00 0.00 0.00 40 1007.5
20260509235239 27 169 9.7 14.5 0.00 0.00 0.00 39 1007.4
20260509234219 28 153 11.3 19.3 0.00 0.00 0.00 36 1007.5
20260509233239 28 170 9.7 17.7 0.00 0.00 0.00 37 1007.5
20260509232219 28 176 9.7 14.5 0.00 0.00 0.00 35 1007.5
20260509231219 28 156 12.9 17.7 0.00 0.00 0.00 37 1007.7
20260509230219 28 186 8.0 17.7 0.00 0.00 0.00 37 1007.6
20260509225220 28 133 11.3 16.1 0.00 0.69 0.00 35 1007.7
20260509224240 28 120 16.1 20.9 0.00 1.19 0.00 34 1007.8
20260509223220 28 160 14.5 20.9 0.00 1.19 0.00 33 1008.0
20260509222217 28 134 12.9 14.5 0.00 1.19 0.00 34 1008.2
20260509221240 28 130 11.3 16.1 0.00 1.19 0.00 34 1008.2
20260509220220 28 135 9.7 12.9 0.00 1.19 0.00 36 1008.3
20260509215237 28 168 11.3 17.7 0.00 1.19 0.00 34 1008.2
20260509214218 28 154 12.9 17.7 0.00 1.19 0.00 35 1008.2
20260509213218 28 132 9.7 14.5 0.00 1.19 0.00 36 1008.3
20260509212220 28 127 11.3 16.1 0.00 1.19 0.00 36 1008.4
20260509211218 28 136 9.7 20.9 0.00 1.19 0.00 35 1008.6
20260509210218 28 136 14.5 16.1 0.00 1.19 0.00 35 1008.7
20260509205218 28 120 9.7 14.5 0.00 1.19 0.00 36 1008.8
20260509204218 28 133 1.6 4.8 0.00 1.19 0.00 36 1008.9
20260509203218 27 168 6.4 9.7 0.00 1.19 0.00 36 1008.9
20260509202218 27 151 6.4 11.3 0.00 1.19 0.00 35 1009.0
20260509201219 27 149 11.3 16.1 0.00 1.19 0.00 35 1009.1
20260509200219 27 124 8.0 11.3 0.00 1.19 0.00 34 1009.3
20260509195219 27 130 6.4 9.7 0.00 1.19 0.00 33 1009.5
20260509194219 27 157 4.8 6.4 0.00 1.19 0.00 32 1009.5
20260509193219 27 138 9.7 12.9 0.00 1.19 0.00 32 1009.6
20260509192239 27 107 8.0 12.9 0.00 1.19 0.00 34 1009.7
20260509191219 27 97 9.7 11.3 0.00 1.19 0.00 32 1009.8
20260509190240 27 142 6.4 8.0 0.00 1.19 0.00 33 1010.0
20260509185240 27 84 4.8 8.0 0.00 1.19 0.00 28 1010.0
20260509184217 26 126 6.4 11.3 0.00 1.19 0.00 31 1010.2
20260509183217 26 146 11.3 12.9 0.00 1.19 0.00 32 1010.2
20260509182220 26 125 11.3 14.5 0.00 1.19 0.00 35 1010.3
20260509181240 26 231 8.0 12.9 0.00 1.19 0.00 38 1010.5
20260509180220 26 164 6.4 11.3 0.00 1.19 0.00 40 1010.6
20260509175218 26 213 6.4 12.9 0.00 1.19 0.00 41 1010.9
20260509174238 26 151 11.3 14.5 0.00 1.19 0.00 41 1011.1
20260509173237 25 154 6.4 9.7 0.00 1.19 0.00 33 1011.1
20260509172221 25 243 3.2 4.8 0.00 1.19 0.00 45 1011.3
20260509171218 25 165 4.8 9.7 0.00 1.19 0.00 45 1011.3
20260509170218 25 120 3.2 8.0 0.00 1.19 0.00 42 1011.4
20260509165218 24 185 8.0 14.5 0.00 1.19 0.00 50 1011.5
20260509164239 24 114 8.0 11.3 0.00 1.19 0.00 54 1011.5
20260509163219 23 170 8.0 11.3 0.00 1.19 0.00 61 1011.7
20260509162219 23 113 6.4 8.0 0.00 1.19 0.00 62 1011.8
20260509161219 22 135 8.0 12.9 0.00 1.19 0.00 65 1011.9
20260509160219 22 175 6.4 12.9 0.00 1.19 0.00 70 1011.9
20260509155219 21 129 8.0 9.7 0.00 1.19 0.00 73 1011.6
20260509154219 21 150 6.4 9.7 0.00 1.19 0.00 72 1011.8
20260509153219 21 145 8.0 9.7 0.00 1.19 0.00 71 1011.6
20260509152220 21 140 8.0 11.3 0.00 1.19 0.00 72 1011.5
20260509151220 21 140 3.2 6.4 0.00 1.19 0.00 69 1011.7
20260509150220 20 141 4.8 8.0 0.00 1.19 0.00 72 1011.6
20260509145237 20 117 6.4 9.7 0.00 1.19 0.00 75 1011.5
20260509144240 19 83 6.4 8.0 0.00 1.19 0.00 79 1011.4
20260509143220 19 66 3.2 8.0 0.00 1.19 0.00 80 1011.6
20260509142220 19 72 1.6 4.8 0.00 1.19 0.00 80 1011.7
20260509141220 18 294 0.0 1.6 0.00 1.19 0.00 83 1011.7
20260509140237 17 32 0.0 1.6 0.00 1.19 0.00 87 1011.7
20260509135217 17 21 1.6 3.2 0.00 1.19 0.00 90 1011.6
20260509134220 17 329 0.0 1.6 0.00 1.19 0.00 94 1011.6
20260509133218 16 303 1.6 3.2 0.00 1.19 0.00 96 1011.4
20260509132218 16 296 1.6 3.2 0.00 1.19 0.00 96 1011.4
20260509131218 15 12 0.0 0.0 0.00 1.19 0.00 97 1011.3
20260509130218 15 302 3.2 4.8 0.00 1.19 0.00 97 1011.1
20260509125218 15 315 0.0 1.6 0.00 1.19 0.00 98 1011.1
20260509124239 14 310 1.6 3.2 0.00 1.19 0.00 98 1010.8
20260509123218 14 350 0.0 1.6 0.00 1.19 0.00 98 1010.8
20260509122218 13 289 3.2 3.2 0.00 1.19 0.00 98 1010.7
20260509121219 13 294 0.0 3.2 0.00 1.19 0.00 98 1010.7
20260509120219 13 0.0 0.0 0.00 1.19 0.00 97 1010.6
20260509115239 12 0.0 0.0 0.00 1.19 0.00 97 1010.5
20260509114219 13 294 3.2 3.2 0.00 1.19 0.00 97 1010.5
20260509113219 13 292 1.6 3.2 0.00 1.19 0.00 97 1010.3
20260509112220 13 308 3.2 3.2 0.00 1.19 0.00 97 1010.2
20260509111239 13 0.0 0.0 0.00 1.19 0.00 97 1010.0
20260509110220 13 71 0.0 0.0 0.00 1.19 0.00 97 1010.0
20260509105220 13 0.0 0.0 0.00 1.19 0.00 96 1010.1
20260509104220 13 111 0.0 0.0 0.00 1.19 0.00 96 1010.1
20260509103220 13 0.0 0.0 0.00 1.19 0.00 96 1010.2
20260509102220 13 0.0 0.0 0.00 1.19 0.00 96 1010.2
20260509101220 13 288 1.6 3.2 0.00 1.19 0.00 96 1010.4
20260509100221 14 285 1.6 3.2 0.00 1.19 0.00 96 1010.6
20260509095220 14 0.0 0.0 0.00 1.19 0.00 96 1010.6
20260509094221 14 344 3.2 3.2 0.00 1.19 0.00 96 1010.7
20260509093221 14 313 0.0 0.0 0.00 1.19 0.00 96 1010.8
20260509092221 14 0.0 0.0 0.00 1.19 0.00 96 1010.7
20260509091221 14 353 0.0 1.6 0.00 1.19 0.00 95 1010.5
20260509090221 14 316 0.0 0.0 0.00 1.19 0.00 95 1010.7
20260509085221 14 123 0.0 0.0 0.00 1.19 0.00 95 1010.7
20260509084222 15 0.0 0.0 0.00 1.19 0.00 95 1010.5
20260509083221 15 0.0 0.0 0.00 1.19 0.00 95 1010.5
20260509082222 15 0.0 0.0 0.00 1.19 0.00 94 1010.5
20260509081222 15 115 1.6 1.6 0.00 1.19 0.00 94 1010.5
20260509080222 15 25 0.0 0.0 0.00 1.19 0.00 94 1010.7
20260509075242 15 0.0 0.0 0.00 1.19 0.00 93 1010.9
20260509074222 15 27 1.6 1.6 0.00 1.19 0.00 93 1011.0
20260509073302 15 40 0.0 1.6 0.00 1.19 0.00 93 1011.2
20260509072222 15 0.0 0.0 0.00 1.19 0.00 92 1011.2
20260509071222 15 230 1.6 3.2 0.00 1.19 0.00 92 1011.2
20260509070223 15 183 1.6 3.2 0.00 1.19 0.00 92 1011.1
20260509065223 16 240 0.0 0.0 0.00 1.19 0.00 91 1011.1
20260509064223 16 110 0.0 1.6 0.00 1.19 0.00 90 1011.0
20260509063223 16 136 3.2 3.2 0.00 1.19 0.00 89 1011.1
20260509062221 16 134 6.4 8.0 0.00 1.19 0.00 89 1011.3
20260509061244 16 106 0.0 3.2 0.00 1.19 0.00 88 1011.3
20260509060221 17 151 4.8 8.0 0.00 1.19 0.00 87 1011.3
20260509055221 16 104 6.4 8.0 0.00 1.19 0.00 88 1011.2
20260509054224 16 72 4.8 6.4 0.00 1.19 0.00 88 1011.1
20260509053224 17 73 6.4 8.0 0.00 1.19 0.00 88 1011.1
20260509052224 17 91 3.2 3.2 0.00 1.19 0.00 88 1011.1
20260509051224 17 90 3.2 3.2 0.00 1.19 0.00 88 1011.2
20260509050221 17 75 4.8 8.0 0.00 1.19 0.00 87 1011.0
20260509045222 17 76 8.0 11.3 0.00 1.19 1.19 87 1011.1
20260509044222 17 89 8.0 8.0 0.00 1.19 1.19 87 1011.3
20260509043222 17 71 6.4 9.7 0.00 1.19 1.19 86 1011.3
20260509042242 17 85 9.7 12.9 0.00 1.19 1.19 86 1011.2
20260509041225 17 114 6.4 8.0 0.00 1.19 1.19 87 1011.1
20260509040245 17 119 4.8 6.4 0.00 1.19 1.19 88 1011.1
20260509035242 17 104 3.2 4.8 0.00 1.19 1.19 88 1010.7
20260509034217 17 100 6.4 6.4 0.00 1.19 1.19 88 1010.6
20260509033220 17 148 1.6 3.2 0.00 1.19 1.19 89 1010.3
20260509032219 17 0.0 0.0 0.00 1.19 1.19 89 1010.0
20260509031220 17 104 1.6 4.8 0.00 1.19 1.19 89 1009.9
20260509030220 18 117 0.0 3.2 0.00 1.19 1.19 88 1009.6
20260509025217 18 61 1.6 3.2 0.00 1.19 1.19 88 1009.4
20260509024217 18 82 4.8 6.4 0.00 1.19 1.19 87 1009.3
20260509023220 18 67 6.4 9.7 0.00 1.19 1.19 86 1009.2
20260509022240 18 66 4.8 6.4 0.00 1.19 1.19 84 1009.1
20260509021218 19 103 9.7 12.9 0.00 1.19 1.19 83 1009.1
20260509020218 19 200 4.8 8.0 0.00 1.19 1.19 81 1008.7
20260509015218 19 237 4.8 6.4 0.00 1.19 1.19 81 1008.5
20260509014238 20 168 3.2 9.7 0.00 1.19 1.19 80 1008.3
20260509013219 20 165 3.2 6.4 0.00 1.19 1.19 79 1007.9
20260509012218 20 219 6.4 8.0 0.00 1.19 1.19 78 1007.9
20260509011218 20 221 6.4 9.7 0.00 1.19 1.19 78 1008.0
20260509010239 20 228 8.0 11.3 0.00 1.19 1.19 77 1008.1
20260509005219 20 208 11.3 14.5 0.00 1.19 1.19 78 1007.9
20260509004219 20 228 11.3 19.3 0.00 1.19 1.19 78 1007.6
20260509003219 20 231 4.8 11.3 0.00 1.19 1.19 80 1007.2
20260509002239 20 180 3.2 8.0 0.00 1.19 1.19 80 1007.2
20260509001219 20 206 4.8 8.0 0.00 1.19 1.19 78 1006.7